Location: Newark
(39.8500°N, 99.5772°W)
Time: 18:19:38
(UTC+00:00)

OTV 5 (USA 277) - Visible Passes

Search period start: 25 August 2019 00:00
Search period end: 04 September 2019 00:00
Orbit: 305 x 329 km, 54.5° (Epoch: 20 August)

Date Brightness Start Highest point End Pass type
(mag) Time Alt. Az. Time Alt. Az. Time Alt. Az.
25 Aug ? 03:03:47 10° WSW 03:06:14 30° NW 03:07:59 15° NNE visible
26 Aug ? 01:43:52 10° SSW 01:46:30 46° SE 01:49:06 10° ENE visible
26 Aug ? 03:19:22 10° WNW 03:21:00 14° NNW 03:22:36 10° N visible
27 Aug ? 01:58:23 10° WSW 02:01:01 51° NW 02:03:40 10° NE visible
28 Aug ? 02:13:34 10° W 02:15:42 20° NNW 02:17:50 10° NNE visible
29 Aug ? 02:29:45 10° NW 02:30:32 11° NNW 02:31:19 10° N visible
